Year,Month,Day,Hour,Minute,Value (Times are PST for temperature in C)
2016,05,27,00,00,9.70
2016,05,27,00,01,9.70
2016,05,27,00,02,9.70
2016,05,27,00,03,9.70
2016,05,27,00,04,9.70
2016,05,27,00,05,9.70
2016,05,27,00,06,9.60
2016,05,27,00,07,9.60
2016,05,27,00,08,9.60
2016,05,27,00,09,9.60
2016,05,27,00,10,9.60
2016,05,27,00,11,9.60
2016,05,27,00,12,9.60
2016,05,27,00,13,9.60
2016,05,27,00,14,9.60
2016,05,27,00,15,9.50
2016,05,27,00,16,9.50
2016,05,27,00,17,9.40
2016,05,27,00,18,9.40
2016,05,27,00,19,9.40
2016,05,27,00,20,9.30
2016,05,27,00,21,9.30
2016,05,27,00,22,9.30
2016,05,27,00,23,9.30
2016,05,27,00,24,9.30
2016,05,27,00,25,9.30
2016,05,27,00,26,9.30
2016,05,27,00,27,9.30
2016,05,27,00,28,9.30
2016,05,27,00,29,9.30
2016,05,27,00,30,9.30
2016,05,27,00,31,9.20
2016,05,27,00,32,9.20
2016,05,27,00,33,9.20
2016,05,27,00,34,9.20
2016,05,27,00,35,9.20
2016,05,27,00,36,9.20
2016,05,27,00,37,9.20
2016,05,27,00,38,9.20
2016,05,27,00,39,9.10
2016,05,27,00,40,9.20
2016,05,27,00,41,9.20
2016,05,27,00,42,9.20
2016,05,27,00,43,9.20
2016,05,27,00,44,9.20
2016,05,27,00,45,9.10
2016,05,27,00,46,9.10
2016,05,27,00,47,9.20
2016,05,27,00,48,9.20
2016,05,27,00,49,9.20
2016,05,27,00,50,9.10
2016,05,27,00,51,9.10
2016,05,27,00,52,9.10
2016,05,27,00,53,9.10
2016,05,27,00,54,9.10
2016,05,27,00,55,9.10
2016,05,27,00,56,9.00
2016,05,27,00,57,9.00
2016,05,27,00,58,9.00
2016,05,27,00,59,9.00
2016,05,27,01,00,9.00
2016,05,27,01,01,9.00
2016,05,27,01,02,9.00
2016,05,27,01,03,9.00
2016,05,27,01,04,8.90
2016,05,27,01,05,8.90
2016,05,27,01,06,8.90
2016,05,27,01,07,8.90
2016,05,27,01,08,8.90
2016,05,27,01,09,8.90
2016,05,27,01,10,9.00
2016,05,27,01,11,8.90
2016,05,27,01,12,8.90
2016,05,27,01,13,9.00
2016,05,27,01,14,9.00
2016,05,27,01,15,9.00
2016,05,27,01,16,9.00
2016,05,27,01,17,9.00
2016,05,27,01,18,9.00
2016,05,27,01,19,9.00
2016,05,27,01,20,9.00
2016,05,27,01,21,9.00
2016,05,27,01,22,9.00
2016,05,27,01,23,9.00
2016,05,27,01,24,9.00
2016,05,27,01,25,9.00
2016,05,27,01,26,9.00
2016,05,27,01,27,9.00
2016,05,27,01,28,9.10
2016,05,27,01,29,9.10
2016,05,27,01,30,9.10
2016,05,27,01,31,9.10
2016,05,27,01,32,9.20
2016,05,27,01,33,9.20
2016,05,27,01,34,9.20
2016,05,27,01,35,9.20
2016,05,27,01,36,9.20
2016,05,27,01,37,9.20
2016,05,27,01,38,9.20
2016,05,27,01,39,9.30
2016,05,27,01,40,9.30
2016,05,27,01,41,9.30
2016,05,27,01,42,9.30
2016,05,27,01,43,9.40
2016,05,27,01,44,9.40
2016,05,27,01,45,9.40
2016,05,27,01,46,9.40
2016,05,27,01,47,9.40
2016,05,27,01,48,9.40
2016,05,27,01,49,9.40
2016,05,27,01,50,9.40
2016,05,27,01,51,9.40
2016,05,27,01,52,9.40
2016,05,27,01,53,9.40
2016,05,27,01,54,9.40
2016,05,27,01,55,9.40
2016,05,27,01,56,9.40
2016,05,27,01,57,9.40
2016,05,27,01,58,9.40
2016,05,27,01,59,9.40
2016,05,27,02,00,9.40
2016,05,27,02,01,9.40
2016,05,27,02,02,9.40
2016,05,27,02,03,9.40
2016,05,27,02,04,9.50
2016,05,27,02,05,9.40
2016,05,27,02,06,9.40
2016,05,27,02,07,9.40
2016,05,27,02,08,9.40
2016,05,27,02,09,9.40
2016,05,27,02,10,9.50
2016,05,27,02,11,9.50
2016,05,27,02,12,9.50
2016,05,27,02,13,9.40
2016,05,27,02,14,9.40
2016,05,27,02,15,9.40
2016,05,27,02,16,9.40
2016,05,27,02,17,9.40
2016,05,27,02,18,9.40
2016,05,27,02,19,9.40
2016,05,27,02,20,9.40
2016,05,27,02,21,9.50
2016,05,27,02,22,9.50
2016,05,27,02,23,9.50
2016,05,27,02,24,9.50
2016,05,27,02,25,9.50
2016,05,27,02,26,9.50
2016,05,27,02,27,9.50
2016,05,27,02,28,9.60
2016,05,27,02,29,9.50
2016,05,27,02,30,9.60
2016,05,27,02,31,9.60
2016,05,27,02,32,9.60
2016,05,27,02,33,9.70
2016,05,27,02,34,9.70
2016,05,27,02,35,9.70
2016,05,27,02,36,9.70
2016,05,27,02,37,9.70
2016,05,27,02,38,9.70
2016,05,27,02,39,9.70
2016,05,27,02,40,9.70
2016,05,27,02,41,9.70
2016,05,27,02,42,9.70
2016,05,27,02,43,9.70
2016,05,27,02,44,9.70
2016,05,27,02,45,9.80
2016,05,27,02,46,9.80
2016,05,27,02,47,9.80
2016,05,27,02,48,9.80
2016,05,27,02,49,9.80
2016,05,27,02,50,9.80
2016,05,27,02,51,9.80
2016,05,27,02,52,9.90
2016,05,27,02,53,9.90
2016,05,27,02,54,9.80
2016,05,27,02,55,9.80
2016,05,27,02,56,9.80
2016,05,27,02,57,9.80
2016,05,27,02,58,9.80
2016,05,27,02,59,9.80
2016,05,27,03,00,9.70
2016,05,27,03,01,9.80
2016,05,27,03,02,9.80
2016,05,27,03,03,9.80
2016,05,27,03,04,9.80
2016,05,27,03,05,9.80
2016,05,27,03,06,9.90
2016,05,27,03,07,9.90
2016,05,27,03,08,9.90
2016,05,27,03,09,9.90
2016,05,27,03,10,10.00
2016,05,27,03,11,10.00
2016,05,27,03,12,10.00
2016,05,27,03,13,10.00
2016,05,27,03,14,10.00
2016,05,27,03,15,10.00
2016,05,27,03,16,10.00
2016,05,27,03,17,10.00
2016,05,27,03,18,10.00
2016,05,27,03,19,10.00
2016,05,27,03,20,9.90
2016,05,27,03,21,9.90
2016,05,27,03,22,9.90
2016,05,27,03,23,9.90
2016,05,27,03,24,9.90
2016,05,27,03,25,9.90
2016,05,27,03,26,9.90
2016,05,27,03,27,9.90
2016,05,27,03,28,9.90
2016,05,27,03,29,9.90
2016,05,27,03,30,9.90
2016,05,27,03,31,9.90
2016,05,27,03,32,9.90
2016,05,27,03,33,9.90
2016,05,27,03,34,9.90
2016,05,27,03,35,9.80
2016,05,27,03,36,9.80
2016,05,27,03,37,9.80
2016,05,27,03,38,9.80
2016,05,27,03,39,9.80
2016,05,27,03,40,9.80
2016,05,27,03,41,9.80
2016,05,27,03,42,9.80
2016,05,27,03,43,9.80
2016,05,27,03,44,9.70
2016,05,27,03,45,9.70
2016,05,27,03,46,9.70
2016,05,27,03,47,9.70
2016,05,27,03,48,9.70
2016,05,27,03,49,9.60
2016,05,27,03,50,9.70
2016,05,27,03,51,9.70
2016,05,27,03,52,9.70
2016,05,27,03,53,9.70
2016,05,27,03,54,9.70
2016,05,27,03,55,9.70
2016,05,27,03,56,9.60
2016,05,27,03,57,9.60
2016,05,27,03,58,9.60
2016,05,27,03,59,9.70
2016,05,27,04,00,9.70
2016,05,27,04,01,9.70
2016,05,27,04,02,9.70
2016,05,27,04,03,9.70
2016,05,27,04,04,9.70
2016,05,27,04,05,9.70
2016,05,27,04,06,9.70
2016,05,27,04,07,9.70
2016,05,27,04,08,9.70
2016,05,27,04,09,9.70
2016,05,27,04,10,9.80
2016,05,27,04,11,9.80
2016,05,27,04,12,9.80
2016,05,27,04,13,9.80
2016,05,27,04,14,9.80
2016,05,27,04,15,9.80
2016,05,27,04,16,9.70
2016,05,27,04,17,9.70
2016,05,27,04,18,9.70
2016,05,27,04,19,9.70
2016,05,27,04,20,9.70
2016,05,27,04,21,9.80
2016,05,27,04,22,9.80
2016,05,27,04,23,9.90
2016,05,27,04,24,9.90
2016,05,27,04,25,9.90
2016,05,27,04,26,9.90
2016,05,27,04,27,9.90
2016,05,27,04,28,9.90
2016,05,27,04,29,9.80
2016,05,27,04,30,9.80
2016,05,27,04,31,9.90
2016,05,27,04,32,9.90
2016,05,27,04,33,9.90
2016,05,27,04,34,10.00
2016,05,27,04,35,10.00
2016,05,27,04,36,10.10
2016,05,27,04,37,10.10
2016,05,27,04,38,10.10
2016,05,27,04,39,10.10
2016,05,27,04,40,10.10
2016,05,27,04,41,10.10
2016,05,27,04,42,10.10
2016,05,27,04,43,10.20
2016,05,27,04,44,10.20
2016,05,27,04,45,10.20
2016,05,27,04,46,10.30
2016,05,27,04,47,10.30
2016,05,27,04,48,10.30
2016,05,27,04,49,10.30
2016,05,27,04,50,10.40
2016,05,27,04,51,10.30
2016,05,27,04,52,10.30
2016,05,27,04,53,10.30
2016,05,27,04,54,10.30
2016,05,27,04,55,10.30
2016,05,27,04,56,10.30
2016,05,27,04,57,10.20
2016,05,27,04,58,10.20
2016,05,27,04,59,10.20
2016,05,27,05,00,10.20
2016,05,27,05,01,10.20
2016,05,27,05,02,10.10
2016,05,27,05,03,10.10
2016,05,27,05,04,10.10
2016,05,27,05,05,10.00
2016,05,27,05,06,10.00
2016,05,27,05,07,10.00
2016,05,27,05,08,10.00
2016,05,27,05,09,10.00
2016,05,27,05,10,10.00
2016,05,27,05,11,10.00
2016,05,27,05,12,10.00
2016,05,27,05,13,10.00
2016,05,27,05,14,9.90
2016,05,27,05,15,9.90
2016,05,27,05,16,10.00
2016,05,27,05,17,10.00
2016,05,27,05,18,10.00
2016,05,27,05,19,10.00
2016,05,27,05,20,10.00
2016,05,27,05,21,10.00
2016,05,27,05,22,10.00
2016,05,27,05,23,10.10
2016,05,27,05,24,10.10
2016,05,27,05,25,10.10
2016,05,27,05,26,10.00
2016,05,27,05,27,10.00
2016,05,27,05,28,10.00
2016,05,27,05,29,10.10
2016,05,27,05,30,10.00
2016,05,27,05,31,10.00
2016,05,27,05,32,10.00
2016,05,27,05,33,10.00
2016,05,27,05,34,10.00
2016,05,27,05,35,10.00
2016,05,27,05,36,10.10
2016,05,27,05,37,10.10
2016,05,27,05,38,10.10
2016,05,27,05,39,10.10
2016,05,27,05,40,10.10
2016,05,27,05,41,10.10
2016,05,27,05,42,10.10
2016,05,27,05,43,10.00
2016,05,27,05,44,10.00
2016,05,27,05,45,10.00
2016,05,27,05,46,10.00
2016,05,27,05,47,10.10
2016,05,27,05,48,10.10
2016,05,27,05,49,10.10
2016,05,27,05,50,10.10
2016,05,27,05,51,10.10
2016,05,27,05,52,10.10
2016,05,27,05,53,10.10
2016,05,27,05,54,10.20
2016,05,27,05,55,10.20
2016,05,27,05,56,10.20
2016,05,27,05,57,10.20
2016,05,27,05,58,10.20
2016,05,27,05,59,10.20
2016,05,27,06,00,10.20
2016,05,27,06,01,10.30
2016,05,27,06,02,10.30
2016,05,27,06,03,10.30
2016,05,27,06,04,10.30
2016,05,27,06,05,10.30
2016,05,27,06,06,10.40
2016,05,27,06,07,10.40
2016,05,27,06,08,10.40
2016,05,27,06,09,10.40
2016,05,27,06,10,10.50
2016,05,27,06,11,10.50
2016,05,27,06,12,10.60
2016,05,27,06,13,10.60
2016,05,27,06,14,10.60
2016,05,27,06,15,10.70
2016,05,27,06,16,10.70
2016,05,27,06,17,10.70
2016,05,27,06,18,10.80
2016,05,27,06,19,10.80
2016,05,27,06,20,10.80
2016,05,27,06,21,10.80
2016,05,27,06,22,10.80
2016,05,27,06,23,10.80
2016,05,27,06,24,10.80
2016,05,27,06,25,10.90
2016,05,27,06,26,10.90
2016,05,27,06,27,10.90
2016,05,27,06,28,10.90
2016,05,27,06,29,10.90
2016,05,27,06,30,10.90
2016,05,27,06,31,11.00
2016,05,27,06,32,11.00
2016,05,27,06,33,11.00
2016,05,27,06,34,11.00
2016,05,27,06,35,11.00
2016,05,27,06,36,11.00
2016,05,27,06,37,11.00
2016,05,27,06,38,11.10
2016,05,27,06,39,11.10
2016,05,27,06,40,11.10
2016,05,27,06,41,11.10
2016,05,27,06,42,11.10
2016,05,27,06,43,11.10
2016,05,27,06,44,11.10
2016,05,27,06,45,11.10
2016,05,27,06,46,11.20
2016,05,27,06,47,11.20
2016,05,27,06,48,11.20
2016,05,27,06,49,11.20
2016,05,27,06,50,11.20
2016,05,27,06,51,11.20
2016,05,27,06,52,11.20
2016,05,27,06,53,11.20
2016,05,27,06,54,11.30
2016,05,27,06,55,11.30
2016,05,27,06,56,11.30
2016,05,27,06,57,11.30
2016,05,27,06,58,11.30
2016,05,27,06,59,11.30
2016,05,27,07,00,11.30
2016,05,27,07,01,11.40
2016,05,27,07,02,11.40
2016,05,27,07,03,11.40
2016,05,27,07,04,11.40
2016,05,27,07,05,11.40
2016,05,27,07,06,11.40
2016,05,27,07,07,11.40
2016,05,27,07,08,11.50
2016,05,27,07,09,11.50
2016,05,27,07,10,11.50
2016,05,27,07,11,11.50
2016,05,27,07,12,11.50
2016,05,27,07,13,11.50
2016,05,27,07,14,11.50
2016,05,27,07,15,11.60
2016,05,27,07,16,11.50
2016,05,27,07,17,11.50
2016,05,27,07,18,11.60
2016,05,27,07,19,11.50
2016,05,27,07,20,11.60
2016,05,27,07,21,11.50
2016,05,27,07,22,11.60
2016,05,27,07,23,11.60
2016,05,27,07,24,11.60
2016,05,27,07,25,11.50
2016,05,27,07,26,11.50
2016,05,27,07,27,11.50
2016,05,27,07,28,11.50
2016,05,27,07,29,11.50
2016,05,27,07,30,11.50
2016,05,27,07,31,11.40
2016,05,27,07,32,11.40
2016,05,27,07,33,11.40
2016,05,27,07,34,11.40
2016,05,27,07,35,11.40
2016,05,27,07,36,11.40
2016,05,27,07,37,11.40
2016,05,27,07,38,11.40
2016,05,27,07,39,11.40
2016,05,27,07,40,11.40
2016,05,27,07,41,11.50
2016,05,27,07,42,11.50
2016,05,27,07,43,11.60
2016,05,27,07,44,11.70
2016,05,27,07,45,11.70
2016,05,27,07,46,11.80
2016,05,27,07,47,11.90
2016,05,27,07,48,11.90
2016,05,27,07,49,12.00
2016,05,27,07,50,12.10
2016,05,27,07,51,12.20
2016,05,27,07,52,12.20
2016,05,27,07,53,12.30
2016,05,27,07,54,12.30
2016,05,27,07,55,12.40
2016,05,27,07,56,12.40
2016,05,27,07,57,12.50
2016,05,27,07,58,12.50
2016,05,27,07,59,12.60
2016,05,27,08,00,12.70
2016,05,27,08,01,12.70
2016,05,27,08,02,12.80
2016,05,27,08,03,12.80
2016,05,27,08,04,12.90
2016,05,27,08,05,12.90
2016,05,27,08,06,13.00
2016,05,27,08,07,13.00
2016,05,27,08,08,13.00
2016,05,27,08,09,13.10
2016,05,27,08,10,13.10
2016,05,27,08,11,13.10
2016,05,27,08,12,13.10
2016,05,27,08,13,13.10
2016,05,27,08,14,13.10
2016,05,27,08,15,13.10
2016,05,27,08,16,13.10
2016,05,27,08,17,13.20
2016,05,27,08,18,13.20
2016,05,27,08,19,13.30
2016,05,27,08,20,13.30
2016,05,27,08,21,13.30
2016,05,27,08,22,13.30
2016,05,27,08,23,13.30
2016,05,27,08,24,13.30
2016,05,27,08,25,13.40
2016,05,27,08,26,13.40
2016,05,27,08,27,13.40
2016,05,27,08,28,13.40
2016,05,27,08,29,13.40
2016,05,27,08,30,13.40
2016,05,27,08,31,13.40
2016,05,27,08,32,13.50
2016,05,27,08,33,13.50
2016,05,27,08,34,13.50
2016,05,27,08,35,13.50
2016,05,27,08,36,13.50
2016,05,27,08,37,13.60
2016,05,27,08,38,13.60
2016,05,27,08,39,13.60
2016,05,27,08,40,13.60
2016,05,27,08,41,13.60
2016,05,27,08,42,13.60
2016,05,27,08,43,13.60
2016,05,27,08,44,13.50
2016,05,27,08,45,13.40
2016,05,27,08,46,13.40
2016,05,27,08,47,13.30
2016,05,27,08,48,13.30
2016,05,27,08,49,13.30
2016,05,27,08,50,13.30
2016,05,27,08,51,13.30
2016,05,27,08,52,13.30
2016,05,27,08,53,13.30
2016,05,27,08,54,13.30
2016,05,27,08,55,13.30
2016,05,27,08,56,13.20
2016,05,27,08,57,13.20
2016,05,27,08,58,13.20
2016,05,27,08,59,13.20
2016,05,27,09,00,13.20
2016,05,27,09,01,13.30
2016,05,27,09,02,13.30
2016,05,27,09,03,13.30
2016,05,27,09,04,13.30
2016,05,27,09,05,13.30
2016,05,27,09,06,13.30
2016,05,27,09,07,13.30
2016,05,27,09,08,13.40
2016,05,27,09,09,13.40
2016,05,27,09,10,13.40
2016,05,27,09,11,13.50
2016,05,27,09,12,13.50
2016,05,27,09,13,13.50
2016,05,27,09,14,13.60
2016,05,27,09,15,13.60
2016,05,27,09,16,13.60
2016,05,27,09,17,13.60
2016,05,27,09,18,13.60
2016,05,27,09,19,13.60
2016,05,27,09,20,13.60
2016,05,27,09,21,13.50
2016,05,27,09,22,13.50
2016,05,27,09,23,13.40
2016,05,27,09,24,13.40
2016,05,27,09,25,13.30
2016,05,27,09,26,13.30
2016,05,27,09,27,13.20
2016,05,27,09,28,13.20
2016,05,27,09,29,13.20
2016,05,27,09,30,13.20
2016,05,27,09,31,13.10
2016,05,27,09,32,13.10
2016,05,27,09,33,13.10
2016,05,27,09,34,13.00
2016,05,27,09,35,13.00
2016,05,27,09,36,12.90
2016,05,27,09,37,12.90
2016,05,27,09,38,12.90
2016,05,27,09,39,12.90
2016,05,27,09,40,12.90
2016,05,27,09,41,13.00
2016,05,27,09,42,13.00
2016,05,27,09,43,13.00
2016,05,27,09,44,13.00
2016,05,27,09,45,13.00
2016,05,27,09,46,13.10
2016,05,27,09,47,13.10
2016,05,27,09,48,13.10
2016,05,27,09,49,13.20
2016,05,27,09,50,13.20
2016,05,27,09,51,13.30
2016,05,27,09,52,13.30
2016,05,27,09,53,13.40
2016,05,27,09,54,13.40
2016,05,27,09,55,13.40
2016,05,27,09,56,13.40
2016,05,27,09,57,13.40
2016,05,27,09,58,13.40
2016,05,27,09,59,13.40
2016,05,27,10,00,13.40
2016,05,27,10,01,13.30
2016,05,27,10,02,13.30
2016,05,27,10,03,13.30
2016,05,27,10,04,13.30
2016,05,27,10,05,13.30
2016,05,27,10,06,13.30
2016,05,27,10,07,13.30
2016,05,27,10,08,13.30
2016,05,27,10,09,13.30
2016,05,27,10,10,13.30
2016,05,27,10,11,13.30
2016,05,27,10,12,13.30
2016,05,27,10,13,13.30
2016,05,27,10,14,13.30
2016,05,27,10,15,13.30
2016,05,27,10,16,13.40
2016,05,27,10,17,13.50
2016,05,27,10,18,13.60
2016,05,27,10,19,13.70
2016,05,27,10,20,13.70
2016,05,27,10,21,13.80
2016,05,27,10,22,13.90
2016,05,27,10,23,14.00
2016,05,27,10,24,14.00
2016,05,27,10,25,14.00
2016,05,27,10,26,14.10
2016,05,27,10,27,14.00
2016,05,27,10,28,14.00
2016,05,27,10,29,13.90
2016,05,27,10,30,13.90
2016,05,27,10,31,13.90
2016,05,27,10,32,13.90
2016,05,27,10,33,13.80
2016,05,27,10,34,13.80
2016,05,27,10,35,13.80
2016,05,27,10,36,13.70
2016,05,27,10,37,13.70
2016,05,27,10,38,13.80
2016,05,27,10,39,13.70
2016,05,27,10,40,13.70
2016,05,27,10,41,13.70
2016,05,27,10,42,13.70
2016,05,27,10,43,13.70
2016,05,27,10,44,13.60
2016,05,27,10,45,13.60
2016,05,27,10,46,13.60
2016,05,27,10,47,13.60
2016,05,27,10,48,13.60
2016,05,27,10,49,13.60
2016,05,27,10,50,13.60
2016,05,27,10,51,13.60
2016,05,27,10,52,13.60
2016,05,27,10,53,13.60
2016,05,27,10,54,13.60
2016,05,27,10,55,13.60
2016,05,27,17,26,14.60
2016,05,27,17,27,14.60
2016,05,27,17,28,14.60
2016,05,27,17,29,14.60
2016,05,27,17,30,14.50
2016,05,27,17,31,14.50
2016,05,27,17,32,14.50
2016,05,27,17,33,14.40
2016,05,27,17,34,14.50
2016,05,27,17,35,14.50
2016,05,27,17,36,14.50
2016,05,27,17,37,14.50
2016,05,27,17,38,14.60
2016,05,27,17,39,14.60
2016,05,27,17,40,14.60
2016,05,27,17,41,14.60
2016,05,27,17,42,14.60
2016,05,27,17,43,14.60
2016,05,27,17,44,14.60
2016,05,27,17,45,14.60
2016,05,27,17,46,14.50
2016,05,27,17,47,14.50
2016,05,27,17,48,14.40
2016,05,27,17,49,14.30
2016,05,27,17,50,14.20
2016,05,27,17,51,14.10
2016,05,27,17,52,14.00
2016,05,27,17,53,14.00
2016,05,27,17,54,13.90
2016,05,27,17,55,13.80
2016,05,27,17,56,13.80
2016,05,27,17,57,13.80
2016,05,27,17,58,13.80
2016,05,27,17,59,13.80
2016,05,27,18,00,13.80
2016,05,27,18,01,13.80
2016,05,27,18,02,13.70
2016,05,27,18,03,13.70
2016,05,27,18,04,13.70
2016,05,27,18,05,13.70
2016,05,27,18,06,13.70
2016,05,27,18,07,13.60
2016,05,27,18,08,13.60
2016,05,27,18,09,13.60
2016,05,27,18,10,13.60
2016,05,27,18,11,13.60
2016,05,27,18,12,13.60
2016,05,27,18,13,13.50
2016,05,27,18,14,13.50
2016,05,27,18,15,13.50
2016,05,27,18,16,13.50
2016,05,27,18,17,13.40
2016,05,27,18,18,13.40
2016,05,27,18,19,13.40
2016,05,27,18,20,13.40
2016,05,27,18,21,13.40
2016,05,27,18,22,13.40
2016,05,27,18,23,13.40
2016,05,27,18,24,13.40
2016,05,27,18,25,13.40
2016,05,27,18,26,13.40
2016,05,27,18,27,13.40
2016,05,27,18,28,13.30
2016,05,27,18,29,13.30
2016,05,27,18,30,13.30
2016,05,27,18,31,13.40
2016,05,27,18,32,13.40
2016,05,27,18,33,13.40
2016,05,27,18,34,13.50
2016,05,27,18,35,13.50
2016,05,27,18,36,13.50
2016,05,27,18,37,13.60
2016,05,27,18,38,13.60
2016,05,27,18,39,13.60
2016,05,27,18,40,13.60
2016,05,27,18,41,13.60
2016,05,27,18,42,13.60
2016,05,27,18,43,13.60
2016,05,27,18,44,13.60
2016,05,27,18,45,13.60
2016,05,27,18,46,13.60
2016,05,27,18,47,13.60
2016,05,27,18,48,13.60
2016,05,27,18,49,13.60
2016,05,27,18,50,13.60
2016,05,27,18,51,13.70
2016,05,27,18,52,13.70
2016,05,27,18,53,13.70
2016,05,27,18,54,13.70
2016,05,27,18,55,13.70
2016,05,27,18,56,13.80
2016,05,27,18,57,13.80
2016,05,27,18,58,13.80
2016,05,27,18,59,13.70
2016,05,27,19,00,13.70
2016,05,27,19,01,13.70
2016,05,27,19,02,13.70
2016,05,27,19,03,13.70
2016,05,27,19,04,13.70
2016,05,27,19,05,13.70
2016,05,27,19,06,13.80
2016,05,27,19,07,13.80
2016,05,27,19,08,13.80
2016,05,27,19,09,13.80
2016,05,27,19,10,13.80
2016,05,27,19,11,13.90
2016,05,27,19,12,13.90
2016,05,27,19,13,13.90
2016,05,27,19,14,13.90
2016,05,27,19,15,13.90
2016,05,27,19,16,13.90
2016,05,27,19,17,13.90
2016,05,27,19,18,13.90
2016,05,27,19,19,13.90
2016,05,27,19,20,13.90
2016,05,27,19,21,13.90
2016,05,27,19,22,13.90
2016,05,27,19,23,13.90
2016,05,27,19,24,13.90
2016,05,27,19,25,13.90
2016,05,27,19,26,13.90
2016,05,27,19,27,13.90
2016,05,27,19,28,13.90
2016,05,27,19,29,13.90
2016,05,27,19,30,13.90
2016,05,27,19,31,13.90
2016,05,27,19,32,13.90
2016,05,27,19,33,13.90
2016,05,27,19,34,13.90
2016,05,27,19,35,13.90
2016,05,27,19,36,13.90
2016,05,27,19,37,13.90
2016,05,27,19,38,13.80
2016,05,27,19,39,13.80
2016,05,27,19,40,13.80
2016,05,27,19,41,13.80
2016,05,27,19,42,13.90
2016,05,27,19,43,13.90
2016,05,27,19,44,13.90
2016,05,27,19,45,13.80
2016,05,27,19,46,13.80
2016,05,27,19,47,13.80
2016,05,27,19,48,13.80
2016,05,27,19,49,13.80
2016,05,27,19,50,13.80
2016,05,27,19,51,13.80
2016,05,27,19,52,13.70
2016,05,27,19,53,13.70
2016,05,27,19,54,13.70
2016,05,27,19,55,13.70
2016,05,27,19,56,13.70
2016,05,27,19,57,13.70
2016,05,27,19,58,13.70
2016,05,27,19,59,13.70
2016,05,27,20,00,13.70
2016,05,27,20,01,13.70
2016,05,27,20,02,13.70
2016,05,27,20,03,13.70
2016,05,27,20,04,13.70
2016,05,27,20,05,13.60
2016,05,27,20,06,13.60
2016,05,27,20,07,13.60
2016,05,27,20,08,13.50
2016,05,27,20,09,13.50
2016,05,27,20,10,13.40
2016,05,27,20,11,13.40
2016,05,27,20,12,13.40
2016,05,27,20,13,13.30
2016,05,27,20,14,13.30
2016,05,27,20,15,13.30
2016,05,27,20,16,13.30
2016,05,27,20,17,13.30
2016,05,27,20,18,13.20
2016,05,27,20,19,13.20
2016,05,27,20,20,13.20
2016,05,27,20,21,13.20
2016,05,27,20,22,13.20
2016,05,27,20,23,13.20
2016,05,27,20,24,13.10
2016,05,27,20,25,13.10
2016,05,27,20,26,13.10
2016,05,27,20,27,13.10
2016,05,27,20,28,13.10
2016,05,27,20,29,13.10
2016,05,27,20,30,13.10
2016,05,27,20,31,13.10
2016,05,27,20,32,13.10
2016,05,27,20,33,13.10
2016,05,27,20,34,13.10
2016,05,27,20,35,13.10
2016,05,27,20,36,13.10
2016,05,27,20,37,13.00
2016,05,27,20,38,13.00
2016,05,27,20,39,13.00
2016,05,27,20,40,13.00
2016,05,27,20,41,13.00
2016,05,27,20,42,13.00
2016,05,27,20,43,13.00
2016,05,27,20,44,13.00
2016,05,27,20,45,13.00
2016,05,27,20,46,13.00
2016,05,27,20,47,13.00
2016,05,27,20,48,13.00
2016,05,27,20,49,13.00
2016,05,27,20,50,12.90
2016,05,27,20,51,13.00
2016,05,27,20,52,12.90
2016,05,27,20,53,13.00
2016,05,27,20,54,12.90
2016,05,27,20,55,12.90
2016,05,27,20,56,12.90
2016,05,27,20,57,12.90
2016,05,27,20,58,12.90
2016,05,27,20,59,12.90
2016,05,27,21,00,12.90
2016,05,27,21,01,12.90
2016,05,27,21,02,12.90
2016,05,27,21,03,12.90
2016,05,27,21,04,12.90
2016,05,27,21,05,12.90
2016,05,27,21,06,12.90
2016,05,27,21,07,12.90
2016,05,27,21,08,12.80
2016,05,27,21,09,12.80
2016,05,27,21,10,12.80
2016,05,27,21,11,12.80
2016,05,27,21,12,12.70
2016,05,27,21,13,12.70
2016,05,27,21,14,12.70
2016,05,27,21,15,12.70
2016,05,27,21,16,12.70
2016,05,27,21,17,12.70
2016,05,27,21,18,12.60
2016,05,27,21,19,12.60
2016,05,27,21,20,12.60
2016,05,27,21,21,12.50
2016,05,27,21,22,12.50
2016,05,27,21,23,12.40
2016,05,27,21,24,12.40
2016,05,27,21,25,12.30
2016,05,27,21,26,12.30
2016,05,27,21,27,12.30
2016,05,27,21,28,12.20
2016,05,27,21,29,12.20
2016,05,27,21,30,12.20
2016,05,27,21,31,12.20
2016,05,27,21,32,12.10
2016,05,27,21,33,12.10
2016,05,27,21,34,12.00
2016,05,27,21,35,12.00
2016,05,27,21,36,12.00
2016,05,27,21,37,11.90
2016,05,27,21,38,11.90
2016,05,27,21,39,11.90
2016,05,27,21,40,11.90
2016,05,27,21,41,11.90
2016,05,27,21,42,11.80
2016,05,27,21,43,11.80
2016,05,27,21,44,11.80
2016,05,27,21,45,11.80
2016,05,27,21,46,11.80
2016,05,27,21,47,11.80
2016,05,27,21,48,11.80
2016,05,27,21,49,11.70
2016,05,27,21,50,11.70
2016,05,27,21,51,11.70
2016,05,27,21,52,11.70
2016,05,27,21,53,11.70
2016,05,27,21,54,11.70
2016,05,27,21,55,11.70
2016,05,27,21,56,11.70
2016,05,27,21,57,11.60
2016,05,27,21,58,11.60
2016,05,27,21,59,11.60
2016,05,27,22,00,11.60
2016,05,27,22,01,11.60
2016,05,27,22,02,11.60
2016,05,27,22,03,11.60
2016,05,27,22,04,11.60
2016,05,27,22,05,11.60
2016,05,27,22,06,11.50
2016,05,27,22,07,11.50
2016,05,27,22,08,11.50
2016,05,27,22,09,11.50
2016,05,27,22,10,11.50
2016,05,27,22,11,11.50
2016,05,27,22,12,11.50
2016,05,27,22,13,11.50
2016,05,27,22,14,11.50
2016,05,27,22,15,11.50
2016,05,27,22,16,11.50
2016,05,27,22,17,11.50
2016,05,27,22,18,11.50
2016,05,27,22,19,11.50
2016,05,27,22,20,11.50
2016,05,27,22,21,11.50
2016,05,27,22,22,11.50
2016,05,27,22,23,11.50
2016,05,27,22,24,11.50
2016,05,27,22,25,11.40
2016,05,27,22,26,11.40
2016,05,27,22,27,11.40
2016,05,27,22,28,11.40
2016,05,27,22,29,11.40
2016,05,27,22,30,11.40
2016,05,27,22,31,11.40
2016,05,27,22,32,11.40
2016,05,27,22,33,11.40
2016,05,27,22,34,11.40
2016,05,27,22,35,11.30
2016,05,27,22,36,11.30
2016,05,27,22,37,11.30
2016,05,27,22,38,11.30
2016,05,27,22,39,11.30
2016,05,27,22,40,11.30
2016,05,27,22,41,11.30
2016,05,27,22,42,11.30
2016,05,27,22,43,11.30
2016,05,27,22,44,11.30
2016,05,27,22,45,11.30
2016,05,27,22,46,11.30
2016,05,27,22,47,11.30
2016,05,27,22,48,11.30
2016,05,27,22,49,11.30
2016,05,27,22,50,11.30
2016,05,27,22,51,11.30
2016,05,27,22,52,11.30
2016,05,27,22,53,11.30
2016,05,27,22,54,11.30
2016,05,27,22,55,11.30
2016,05,27,22,56,11.30
2016,05,27,22,57,11.30
2016,05,27,22,58,11.30
2016,05,27,22,59,11.30
2016,05,27,23,00,11.30
2016,05,27,23,01,11.30
2016,05,27,23,02,11.30
2016,05,27,23,03,11.30
2016,05,27,23,04,11.30
2016,05,27,23,05,11.20
2016,05,27,23,06,11.20
2016,05,27,23,07,11.20
2016,05,27,23,08,11.20
2016,05,27,23,09,11.20
2016,05,27,23,10,11.20
2016,05,27,23,11,11.20
2016,05,27,23,12,11.20
2016,05,27,23,13,11.20
2016,05,27,23,14,11.20
2016,05,27,23,15,11.20
2016,05,27,23,16,11.20
2016,05,27,23,17,11.20
2016,05,27,23,18,11.20
2016,05,27,23,19,11.20
2016,05,27,23,20,11.30
2016,05,27,23,21,11.20
2016,05,27,23,22,11.30
2016,05,27,23,23,11.30
2016,05,27,23,24,11.30
2016,05,27,23,25,11.30
2016,05,27,23,26,11.30
2016,05,27,23,27,11.30
2016,05,27,23,28,11.30
2016,05,27,23,29,11.30
2016,05,27,23,30,11.30
2016,05,27,23,31,11.30
2016,05,27,23,32,11.30
2016,05,27,23,33,11.30
2016,05,27,23,34,11.30
2016,05,27,23,35,11.30
2016,05,27,23,36,11.30
2016,05,27,23,37,11.30
2016,05,27,23,38,11.30
2016,05,27,23,39,11.30
2016,05,27,23,40,11.30
2016,05,27,23,41,11.30
2016,05,27,23,42,11.30
2016,05,27,23,43,11.30
2016,05,27,23,44,11.30
2016,05,27,23,45,11.30
2016,05,27,23,46,11.30
2016,05,27,23,47,11.30
2016,05,27,23,48,11.30
2016,05,27,23,49,11.30
2016,05,27,23,50,11.30
2016,05,27,23,51,11.30
2016,05,27,23,52,11.30
2016,05,27,23,53,11.30
2016,05,27,23,54,11.30
2016,05,27,23,55,11.30
2016,05,27,23,56,11.30
2016,05,27,23,57,11.30
2016,05,27,23,58,11.30
2016,05,27,23,59,11.30
